Regional Weather Roundup
Issued by NWS

Home | Current Version | Previous Version | Text Only | Print | Product List | Glossary Off
Versions: 1 2 3 4 5 6 7 8 9 10 11 12 13 14 15 16 17 18 19 20 21 22 23 24 25 26 27 28 29 30 31 32 33 34 35 36 37 38 39 40 41 42 43 44 45 46 47 48 49 50

000
ASUS43 KTOP 261808
RWRKS

WEATHER ROUNDUP FOR KANSAS
NATIONAL WEATHER SERVICE GOODLAND KS
1200 PM CST MON JAN 26 2015

NOTE:  "FAIR" INDICATES FEW OR NO CLOUDS BELOW 12,000 FEET WITH NO
SIGNIFICANT WEATHER AND/OR OBSTRUCTIONS TO VISIBILITY.

KSZ001>006-013>018-027>032-041>047-261900-
NORTHWEST KANSAS

CITY           SKY/WX    TMP DP  RH WIND       PRES   REMARKS
GOODLAND       SUNNY     62  31  31 N22       30.19S
6HR MIN TEMP:  38; 6HR MAX TEMP:  62;

HAYS           SUNNY     64  34  32 NW14      30.08F
HILL CITY      SUNNY     65  32  29 NW16G28   30.09S
6HR MIN TEMP:  41; 6HR MAX TEMP:  65;

RUSSELL        SUNNY     65  33  30 NW15      30.04F
6HR MIN TEMP:  30; 6HR MAX TEMP:  65;

$$

KSZ061>065-074>080-084>089-261900-
SOUTHWEST KANSAS

CITY           SKY/WX    TMP DP  RH WIND       PRES   REMARKS
DODGE CITY     SUNNY     66  30  26 NW15G23   30.15R
6HR MIN TEMP:  38; 6HR MAX TEMP:  66;

ELKHART          N/A    N/A N/A N/A MISG        N/A
GARDEN CITY    SUNNY     66  30  26 N17       30.17R
6HR MIN TEMP:  36; 6HR MAX TEMP:  66;

GREAT BEND     SUNNY     63  36  36 NW14      30.08F
LIBERAL        SUNNY     64  36  34 N18       30.21S
PRATT          SUNNY     63  32  31 NW13      30.09F
$$

KSZ066>073-081>083-090>101-261900-
SOUTHEAST KANSAS

CITY           SKY/WX    TMP DP  RH WIND       PRES   REMARKS
CHANUTE        SUNNY     51  33  50 W15G22    30.00F
6HR MIN TEMP:  22; 6HR MAX TEMP:  51;

COFFEYVILLE    SUNNY     52  33  48 SW15      30.03F
6HR MIN TEMP:  24; 6HR MAX TEMP:  52;

HUTCHINSON     SUNNY     62  35  36 NW17      30.05S
6HR MIN TEMP:  29; 6HR MAX TEMP:  62;

MEDICINE LODGE   N/A     67  34  29 NW10      30.07F
NEWTON         SUNNY     57  34  41 NW14      30.05S
PARSONS        SUNNY     52  33  48 SW13G20   30.02F
6HR MIN TEMP:  21; 6HR MAX TEMP:  52;

WICHITA INTL   SUNNY     61  35  37 W8        30.03F
6HR MIN TEMP:  26; 6HR MAX TEMP:  61;

WICHITA JABRA  SUNNY     57  34  41 W13       30.03F
6HR MIN TEMP:  33; 6HR MAX TEMP:  57;

WICHITA MCCONL SUNNY     57  35  42 NW10      30.03F
WINFIELD       SUNNY     55  31  39 W12       30.05F
6HR MIN TEMP:  25; 6HR MAX TEMP:  55;

$$

KSZ007>012-019>026-033>040-048>060-102>105-261900-
NORTHEAST KANSAS

CITY           SKY/WX    TMP DP  RH WIND       PRES   REMARKS
CONCORDIA      SUNNY     62  35  36 NW18      29.98F
6HR MIN TEMP:  32; 6HR MAX TEMP:  62;

EMPORIA        SUNNY     54  33  45 W12       29.97F
6HR MIN TEMP:  27; 6HR MAX TEMP:  54;

LAWRENCE       SUNNY     51  33  50 W12       29.95F
6HR MIN TEMP:  21; 6HR MAX TEMP:  51;

MANHATTAN      SUNNY     58  35  42 W7        29.97F
6HR MIN TEMP:  28; 6HR MAX TEMP:  58;

MARYSVILLE     SUNNY     59  37  44 NW20      29.97R
OLATHE IND     SUNNY     48  34  58 W16       29.94F
6HR MIN TEMP:  26; 6HR MAX TEMP:  48;

OLATHE EXE     SUNNY     47  34  60 W13G22    29.93F
6HR MIN TEMP:  26; 6HR MAX TEMP:  47;

SALINA         SUNNY     63  36  36 NW18      30.01F
6HR MIN TEMP:  32; 6HR MAX TEMP:  63;

TOPEKA BILLARD SUNNY     52  33  48 W10       29.95F
6HR MIN TEMP:  23; 6HR MAX TEMP:  52;

TOPEKA FORBES  SUNNY     57  33  40 NW15      29.95S
6HR MIN TEMP:  27; 6HR MAX TEMP:  57;

$$


USA.gov is the U.S. government's official web portal to all federal, state and local government web resources and services.